Time,TemperatureF,DewpointF,PressureIn,WindDirection,WindDirectionDegrees,WindSpeedMPH,WindSpeedGustMPH,Humidity,HourlyPrecipIn,Conditions,Clouds,dailyrainin,SoftwareType,DateUTC
2013-02-12 00:00:00,43.0,-99.9,30.34,ENE,70,7.0,9.0,-999,-99.99,,,-99.99,,2013-02-12 08:00:00,
2013-02-12 00:52:00,43.0,-99.9,30.34,ENE,70,7.0,9.0,-999,-99.99,,,-99.99,,2013-02-12 08:52:00,
2013-02-12 01:00:00,43.0,-99.9,30.33,East,100,11.0,11.0,-999,-99.99,,,-99.99,,2013-02-12 09:00:00,
2013-02-12 01:52:00,43.0,-99.9,30.33,East,100,11.0,11.0,-999,-99.99,,,-99.99,,2013-02-12 09:52:00,
2013-02-12 02:00:00,43.0,-99.9,30.33,East,100,9.0,11.0,-999,-99.99,,,-99.99,,2013-02-12 10:00:00,
2013-02-12 02:52:00,43.0,-99.9,30.33,East,100,9.0,11.0,-999,-99.99,,,-99.99,,2013-02-12 10:52:00,
2013-02-12 03:00:00,43.0,-99.9,30.32,East,100,9.0,9.0,-999,-99.99,,,-99.99,,2013-02-12 11:00:00,
2013-02-12 03:53:00,43.0,-99.9,30.32,East,100,9.0,9.0,-999,-99.99,,,-99.99,,2013-02-12 11:53:00,
2013-02-12 04:00:00,43.0,-99.9,30.32,East,90,11.0,13.0,-999,-99.99,,,-99.99,,2013-02-12 12:00:00,
2013-02-12 04:53:00,43.0,-99.9,30.32,East,90,11.0,13.0,-999,-99.99,,,-99.99,,2013-02-12 12:53:00,
2013-02-12 05:00:00,43.0,-99.9,30.32,East,90,11.0,13.0,-999,-99.99,,,-99.99,,2013-02-12 13:00:00,
2013-02-12 05:52:00,43.0,-99.9,30.32,East,90,11.0,13.0,-999,-99.99,,,-99.99,,2013-02-12 13:52:00,
2013-02-12 06:00:00,43.0,-99.9,30.33,East,100,11.0,13.0,-999,-99.99,,,-99.99,,2013-02-12 14:00:00,
2013-02-12 06:52:00,43.0,-99.9,30.33,East,100,11.0,13.0,-999,-99.99,,,-99.99,,2013-02-12 14:52:00,
2013-02-12 07:00:00,44.0,-99.9,30.34,East,90,9.0,11.0,-999,-99.99,,,-99.99,,2013-02-12 15:00:00,
2013-02-12 07:52:00,44.0,-99.9,30.34,East,90,9.0,11.0,-999,-99.99,,,-99.99,,2013-02-12 15:52:00,
2013-02-12 08:00:00,44.0,-99.9,30.33,East,100,11.0,13.0,-999,-99.99,,,-99.99,,2013-02-12 16:00:00,
2013-02-12 08:52:00,44.0,-99.9,30.33,East,100,11.0,13.0,-999,-99.99,,,-99.99,,2013-02-12 16:52:00,
2013-02-12 09:00:00,44.0,-99.9,30.35,East,90,9.0,11.0,-999,-99.99,,,-99.99,,2013-02-12 17:00:00,
2013-02-12 09:52:00,44.0,-99.9,30.35,East,90,9.0,11.0,-999,-99.99,,,-99.99,,2013-02-12 17:52:00,
2013-02-12 10:00:00,44.0,-99.9,30.35,East,100,9.0,13.0,-999,-99.99,,,-99.99,,2013-02-12 18:00:00,
2013-02-12 10:52:00,44.0,-99.9,30.35,East,100,9.0,13.0,-999,-99.99,,,-99.99,,2013-02-12 18:52:00,
2013-02-12 11:00:00,44.0,-99.9,30.34,East,90,13.0,18.0,-999,-99.99,,,-99.99,,2013-02-12 19:00:00,
2013-02-12 11:52:00,44.0,-99.9,30.34,East,90,13.0,18.0,-999,-99.99,,,-99.99,,2013-02-12 19:52:00,
2013-02-12 12:00:00,45.0,-99.9,30.31,East,90,18.0,22.0,-999,-99.99,,,-99.99,,2013-02-12 20:00:00,
2013-02-12 12:52:00,45.0,-99.9,30.31,East,90,18.0,22.0,-999,-99.99,,,-99.99,,2013-02-12 20:52:00,
2013-02-12 13:00:00,45.0,-99.9,30.30,East,100,18.0,22.0,-999,-99.99,,,-99.99,,2013-02-12 21:00:00,
2013-02-12 13:52:00,45.0,-99.9,30.30,East,100,18.0,22.0,-999,-99.99,,,-99.99,,2013-02-12 21:52:00,
2013-02-12 14:00:00,45.0,-99.9,30.29,East,100,16.0,20.0,-999,-99.99,,,-99.99,,2013-02-12 22:00:00,
2013-02-12 14:52:00,45.0,-99.9,30.29,East,100,16.0,20.0,-999,-99.99,,,-99.99,,2013-02-12 22:52:00,
2013-02-12 15:00:00,45.0,-99.9,30.27,East,90,18.0,22.0,-999,-99.99,,,-99.99,,2013-02-12 23:00:00,
2013-02-12 15:52:00,45.0,-99.9,30.27,East,90,18.0,22.0,-999,-99.99,,,-99.99,,2013-02-12 23:52:00,
2013-02-12 16:00:00,45.0,-99.9,30.25,East,80,18.0,22.0,-999,-99.99,,,-99.99,,2013-02-13 00:00:00,
2013-02-12 16:52:00,45.0,-99.9,30.25,East,80,18.0,22.0,-999,-99.99,,,-99.99,,2013-02-13 00:52:00,
2013-02-12 17:00:00,46.0,-99.9,30.23,East,90,18.0,22.0,-999,-99.99,,,-99.99,,2013-02-13 01:00:00,
2013-02-12 17:52:00,46.0,-99.9,30.23,East,90,18.0,22.0,-999,-99.99,,,-99.99,,2013-02-13 01:52:00,
2013-02-12 18:00:00,46.0,-99.9,30.21,East,80,18.0,22.0,-999,-99.99,,,-99.99,,2013-02-13 02:00:00,
2013-02-12 18:52:00,46.0,-99.9,30.21,East,80,18.0,22.0,-999,-99.99,,,-99.99,,2013-02-13 02:52:00,
2013-02-12 19:00:00,46.0,-99.9,30.19,East,90,16.0,18.0,-999,-99.99,,,-99.99,,2013-02-13 03:00:00,
2013-02-12 19:52:00,46.0,-99.9,30.19,East,90,16.0,18.0,-999,-99.99,,,-99.99,,2013-02-13 03:52:00,
2013-02-12 20:00:00,46.0,-99.9,30.19,East,80,13.0,16.0,-999,-99.99,,,-99.99,,2013-02-13 04:00:00,
2013-02-12 20:52:00,46.0,-99.9,30.19,East,80,13.0,16.0,-999,-99.99,,,-99.99,,2013-02-13 04:52:00,
2013-02-12 21:00:00,46.0,-99.9,30.19,East,100,9.0,11.0,-999,-99.99,,,-99.99,,2013-02-13 05:00:00,
2013-02-12 21:52:00,46.0,-99.9,30.19,East,100,9.0,11.0,-999,-99.99,,,-99.99,,2013-02-13 05:52:00,
2013-02-12 22:00:00,47.0,-99.9,30.21,East,80,7.0,9.0,-999,-99.99,,,-99.99,,2013-02-13 06:00:00,
2013-02-12 22:52:00,47.0,-99.9,30.21,East,80,7.0,9.0,-999,-99.99,,,-99.99,,2013-02-13 06:52:00,
2013-02-12 23:00:00,46.0,-99.9,30.22,East,80,2.0,4.0,-999,-99.99,,,-99.99,,2013-02-13 07:00:00,
2013-02-12 23:52:00,46.0,-99.9,30.22,East,80,2.0,4.0,-999,-99.99,,,-99.99,,2013-02-13 07:52:00,